TimeCDT,TemperatureF,Dew PointF,Humidity,Sea Level PressureIn,VisibilityMPH,Wind Direction,Wind SpeedMPH,Gust SpeedMPH,PrecipitationIn,Events,Conditions,WindDirDegrees,DateUTC
12:15 AM,57.2,44.6,63,29.75,10.0,South,17.3,25.3,N/A,,Clear,170,2012-10-16 05:15:00
12:35 AM,57.2,44.6,63,29.74,10.0,South,18.4,25.3,N/A,,Clear,170,2012-10-16 05:35:00
12:55 AM,57.2,44.6,63,29.72,10.0,SSE,18.4,24.2,N/A,,Clear,160,2012-10-16 05:55:00
1:15 AM,57.2,44.6,63,29.72,10.0,South,17.3,25.3,N/A,,Clear,170,2012-10-16 06:15:00
1:35 AM,57.2,44.6,63,29.71,10.0,South,16.1,24.2,N/A,,Clear,170,2012-10-16 06:35:00
1:55 AM,57.2,46.4,67,29.70,10.0,South,16.1,-,N/A,,Clear,170,2012-10-16 06:55:00
2:15 AM,57.2,46.4,67,29.69,10.0,South,15.0,21.9,N/A,,Clear,170,2012-10-16 07:15:00
2:35 AM,57.2,46.4,67,29.68,10.0,South,13.8,19.6,N/A,,Clear,170,2012-10-16 07:35:00
2:55 AM,55.4,46.4,72,29.67,10.0,South,10.4,16.1,N/A,,Clear,180,2012-10-16 07:55:00
3:15 AM,55.4,46.4,72,29.66,10.0,South,10.4,-,N/A,,Clear,170,2012-10-16 08:15:00
3:35 AM,55.4,46.4,72,29.64,10.0,Variable,6.9,17.3,N/A,,Clear,0,2012-10-16 08:35:00
3:55 AM,55.4,46.4,72,29.64,10.0,South,8.1,-,N/A,,Clear,190,2012-10-16 08:55:00
4:15 AM,55.4,46.4,72,29.63,10.0,South,4.6,-,N/A,,Clear,180,2012-10-16 09:15:00
4:35 AM,53.6,46.4,77,29.62,10.0,Calm,Calm,-,N/A,,Clear,0,2012-10-16 09:35:00
5:35 AM,53.6,46.4,77,29.60,10.0,Calm,Calm,-,N/A,,Clear,0,2012-10-16 10:35:00
5:55 AM,53.6,46.4,77,29.59,10.0,Variable,5.8,-,N/A,,Clear,0,2012-10-16 10:55:00
6:15 AM,53.6,46.4,77,29.58,10.0,SSE,8.1,-,N/A,,Clear,160,2012-10-16 11:15:00
6:35 AM,53.6,46.4,77,29.57,10.0,SSE,11.5,-,N/A,,Clear,160,2012-10-16 11:35:00
6:55 AM,53.6,46.4,77,29.56,10.0,SSE,11.5,-,N/A,,Clear,160,2012-10-16 11:55:00
7:15 AM,53.6,46.4,77,29.55,10.0,South,9.2,-,N/A,,Clear,170,2012-10-16 12:15:00
7:35 AM,53.6,46.4,77,29.57,10.0,SW,8.1,-,N/A,,Clear,230,2012-10-16 12:35:00
7:55 AM,51.8,46.4,82,29.57,10.0,SW,5.8,-,N/A,,Clear,220,2012-10-16 12:55:00
8:15 AM,51.8,46.4,82,29.55,10.0,South,5.8,-,N/A,,Clear,170,2012-10-16 13:15:00
8:35 AM,51.8,46.4,82,29.55,10.0,SW,4.6,-,N/A,,Clear,220,2012-10-16 13:35:00
8:55 AM,53.6,48.2,82,29.56,10.0,SSW,5.8,-,N/A,,Clear,210,2012-10-16 13:55:00
9:15 AM,55.4,48.2,77,29.55,10.0,SSW,8.1,-,N/A,,Clear,210,2012-10-16 14:15:00
9:35 AM,57.2,48.2,72,29.55,10.0,SSW,8.1,-,N/A,,Clear,210,2012-10-16 14:35:00
9:55 AM,59.0,48.2,67,29.55,10.0,SW,10.4,-,N/A,,Clear,220,2012-10-16 14:55:00
10:15 AM,60.8,50.0,68,29.54,10.0,WSW,9.2,-,N/A,,Clear,240,2012-10-16 15:15:00
10:35 AM,60.8,50.0,68,29.54,10.0,SW,9.2,-,N/A,,Clear,230,2012-10-16 15:35:00
10:55 AM,62.6,50.0,63,29.54,10.0,West,10.4,-,N/A,,Clear,260,2012-10-16 15:55:00
11:15 AM,64.4,48.2,56,29.53,10.0,West,11.5,-,N/A,,Clear,280,2012-10-16 16:15:00
11:35 AM,64.4,48.2,56,29.53,10.0,West,10.4,-,N/A,,Clear,280,2012-10-16 16:35:00
11:55 AM,66.2,48.2,52,29.53,10.0,WNW,13.8,-,N/A,,Clear,290,2012-10-16 16:55:00
12:15 PM,68.0,48.2,49,29.53,10.0,WNW,11.5,-,N/A,,Clear,300,2012-10-16 17:15:00
12:35 PM,68.0,48.2,49,29.52,10.0,West,11.5,-,N/A,,Clear,280,2012-10-16 17:35:00
12:55 PM,69.8,46.4,43,29.52,10.0,NW,11.5,17.3,N/A,,Clear,310,2012-10-16 17:55:00
1:15 PM,69.8,46.4,43,29.51,10.0,WNW,11.5,-,N/A,,Clear,290,2012-10-16 18:15:00
1:35 PM,71.6,46.4,41,29.50,10.0,WNW,10.4,17.3,N/A,,Clear,300,2012-10-16 18:35:00
1:55 PM,73.4,46.4,38,29.49,10.0,WNW,8.1,17.3,N/A,,Clear,300,2012-10-16 18:55:00
2:15 PM,75.2,44.6,34,29.48,10.0,WNW,13.8,-,N/A,,Clear,300,2012-10-16 19:15:00
2:35 PM,75.2,44.6,34,29.47,10.0,West,11.5,-,N/A,,Clear,280,2012-10-16 19:35:00
2:55 PM,75.2,44.6,34,29.47,10.0,WNW,10.4,-,N/A,,Clear,300,2012-10-16 19:55:00
3:15 PM,77.0,44.6,32,29.46,10.0,NW,8.1,15.0,N/A,,Clear,310,2012-10-16 20:15:00
3:35 PM,77.0,44.6,32,29.46,10.0,West,10.4,-,N/A,,Clear,280,2012-10-16 20:35:00
3:55 PM,77.0,42.8,29,29.45,10.0,WNW,10.4,-,N/A,,Clear,300,2012-10-16 20:55:00
4:15 PM,75.2,42.8,31,29.45,10.0,West,10.4,-,N/A,,Clear,280,2012-10-16 21:15:00
4:35 PM,77.0,42.8,29,29.45,10.0,West,10.4,-,N/A,,Clear,270,2012-10-16 21:35:00
4:55 PM,75.2,42.8,31,29.45,10.0,West,12.7,-,N/A,,Clear,270,2012-10-16 21:55:00
5:15 PM,75.2,42.8,31,29.45,10.0,West,10.4,-,N/A,,Clear,280,2012-10-16 22:15:00
5:35 PM,75.2,42.8,31,29.45,10.0,WSW,11.5,-,N/A,,Clear,250,2012-10-16 22:35:00
5:55 PM,73.4,42.8,33,29.45,-9999.0,West,10.4,-,N/A,,Clear,270,2012-10-16 22:55:00
6:15 PM,69.8,44.6,40,29.45,10.0,West,6.9,-,N/A,,Clear,270,2012-10-16 23:15:00
6:35 PM,68.0,42.8,40,29.45,10.0,Calm,Calm,-,N/A,,Clear,0,2012-10-16 23:35:00
6:55 PM,66.2,44.6,46,29.45,10.0,Calm,Calm,-,N/A,,Clear,0,2012-10-16 23:55:00
7:15 PM,64.4,44.6,49,29.45,10.0,Calm,Calm,-,N/A,,Clear,0,2012-10-17 00:15:00
7:35 PM,60.8,44.6,55,29.45,10.0,Calm,Calm,-,N/A,,Clear,0,2012-10-17 00:35:00
7:55 PM,59.0,44.6,59,29.45,10.0,ESE,3.5,-,N/A,,Clear,120,2012-10-17 00:55:00
8:15 PM,59.0,44.6,59,29.45,10.0,ESE,5.8,-,N/A,,Clear,120,2012-10-17 01:15:00
8:35 PM,59.0,44.6,59,29.44,10.0,SE,4.6,-,N/A,,Clear,130,2012-10-17 01:35:00
8:55 PM,55.4,44.6,67,29.44,10.0,SE,4.6,-,N/A,,Clear,130,2012-10-17 01:55:00
9:15 PM,55.4,44.6,67,29.44,10.0,ESE,4.6,-,N/A,,Clear,120,2012-10-17 02:15:00
9:35 PM,55.4,44.6,67,29.43,10.0,SE,4.6,-,N/A,,Clear,130,2012-10-17 02:35:00
9:55 PM,55.4,44.6,67,29.43,10.0,Calm,Calm,-,N/A,,Clear,0,2012-10-17 02:55:00
10:15 PM,53.6,44.6,72,29.43,6.0,East,3.5,-,N/A,,Haze,100,2012-10-17 03:15:00
10:35 PM,55.4,44.6,67,29.42,10.0,ESE,5.8,-,N/A,,Clear,120,2012-10-17 03:35:00
10:55 PM,57.2,44.6,63,29.42,10.0,ESE,4.6,-,N/A,,Clear,110,2012-10-17 03:55:00
11:15 PM,55.4,44.6,67,29.41,10.0,Calm,Calm,-,N/A,,Clear,0,2012-10-17 04:15:00
11:35 PM,53.6,46.4,77,29.41,10.0,ESE,4.6,-,N/A,,Clear,120,2012-10-17 04:35:00
11:55 PM,57.2,44.6,63,29.40,10.0,SE,4.6,-,N/A,,Clear,130,2012-10-17 04:55:00